Theta_e
343 340 341 342 343 343 344 345 346 347 347 348 348 348 349 349 346 342 345 348 349 347 349 348 347 348 343 336 338 331 330 325 320
343 341 340 341 341 342 343 345 345 346 347 347 347 347 349 350 347 340 345 346 346 349 350 349 350 345 340 335 332 328 324 322 320
343 341 341 340 341 341 343 343 344 345 346 347 347 347 348 350 350 341 340 345 348 351 352 352 351 349 346 343 339 329 323 321 321
343 341 342 342 341 341 343 344 346 345 346 347 348 348 349 350 351 348 341 341 348 350 350 350 351 351 349 347 344 342 339 324 322
342 341 342 344 343 345 342 343 345 346 346 347 347 348 349 350 351 351 347 341 340 344 348 349 350 352 350 348 346 343 342 339 322
341 342 341 343 344 343 342 342 344 345 346 345 346 349 350 350 351 351 351 347 340 339 341 346 347 351 351 349 348 345 343 340 327
342 343 342 341 343 345 346 345 345 345 345 345 347 348 350 350 351 350 349 348 345 338 339 342 342 344 351 352 351 350 346 343 338
341 341 341 341 341 341 343 345 345 346 345 346 347 348 349 349 350 349 348 347 346 341 340 341 341 344 344 346 348 350 349 347 345
339 338 339 340 339 340 343 344 346 346 346 346 347 348 348 349 349 350 349 346 344 345 340 341 344 345 345 344 346 348 349 349 347
336 337 339 339 339 339 343 345 347 347 347 347 348 348 348 349 348 348 348 348 345 342 343 343 344 348 350 351 352 352 352 351 349
336 336 337 338 341 343 344 345 347 347 347 348 348 350 351 349 349 347 348 348 347 344 343 345 345 350 353 353 353 355 355 354 352
333 337 336 336 337 340 346 345 346 347 347 347 349 350 350 349 348 347 347 348 347 346 346 347 348 352 354 355 356 355 356 353 349
330 331 333 334 336 337 338 336 338 346 346 346 346 347 347 349 348 348 347 348 350 351 352 350 352 356 357 357 357 356 353 348 345
331 328 329 330 335 336 336 340 344 346 344 346 344 345 345 349 350 348 347 348 353 354 357 358 357 359 357 350 355 354 349 344 342
338 334 332 332 331 333 334 335 334 340 345 342 343 348 348 347 349 349 351 352 355 358 358 359 362 358 353 346 352 349 345 343 341
342 341 338 336 334 331 331 330 330 331 333 338 343 349 349 349 351 352 354 356 359 360 358 359 357 355 348 347 346 345 343 342 342
345 342 340 341 342 339 335 332 332 332 336 342 349 353 354 354 354 355 356 360 360 359 357 357 354 351 347 345 343 344 344 342 340
351 348 343 343 344 343 339 338 339 342 345 346 357 358 361 360 361 361 362 364 363 360 355 353 350 346 341 341 339 337 341 341 341
353 348 349 352 355 360 360 360 357 353 357 358 357 361 362 359 358 359 359 359 357 352 347 338 348 343 341 342 341 341 340 339 337
354 353 353 355 358 361 363 363 360 362 363 361 360 359 357 357 356 353 351 349 343 334 332 340 345 344 342 341 340 339 336 329 328
Wind_Speed
41 47 50 53 57 59 60 59 58 57 54 51 48 44 40 34 33 33 31 29 31 28 25 21 17 19 21 19 16 15 15 13 12
40 48 50 55 60 61 61 62 61 60 58 54 51 47 43 38 34 37 34 30 31 30 24 21 20 18 18 19 18 17 16 16 13
43 47 51 51 54 60 60 60 62 60 59 57 53 49 46 42 36 38 36 35 36 33 26 25 25 22 20 18 18 17 17 17 16
45 43 50 51 49 55 60 57 58 60 60 59 57 52 48 45 41 37 39 39 38 39 36 32 30 28 25 24 23 21 20 19 19
42 38 45 45 58 54 51 53 55 60 59 59 58 55 49 47 44 41 39 42 42 41 42 40 36 33 33 30 27 27 24 23 24
25 35 34 42 47 45 45 49 54 60 61 59 57 56 53 49 49 45 42 41 43 43 44 42 42 40 37 34 31 30 28 25 25
34 37 39 31 34 43 45 50 53 60 63 60 58 57 55 52 50 47 43 42 43 45 44 45 45 45 43 39 35 34 32 30 27
40 44 34 38 45 42 52 51 57 62 65 61 59 58 57 55 51 47 44 44 44 45 45 45 45 44 45 44 41 38 36 35 31
33 29 37 36 29 38 52 60 61 65 64 62 59 59 59 56 52 51 49 47 46 45 44 44 44 44 43 43 42 40 39 36 34
29 36 38 28 28 43 56 61 67 62 58 59 59 61 60 58 54 52 52 50 47 47 45 43 43 41 41 40 39 37 37 35 35
25 22 27 22 28 35 51 55 56 58 56 57 59 59 60 60 57 53 51 51 50 48 46 43 42 40 37 36 35 32 31 31 31
21 33 22 18 22 24 32 33 46 51 53 55 56 56 57 61 59 54 51 49 49 48 46 42 41 36 34 32 29 28 30 29 26
20 18 20 20 20 28 34 37 41 47 51 53 54 54 55 56 60 56 52 47 45 46 43 40 36 33 29 24 27 27 25 20 19
17 28 26 23 21 23 20 22 38 42 44 46 40 41 40 52 57 57 52 49 45 45 41 36 30 28 24 18 29 26 20 15 15
14 13 22 28 27 33 35 33 37 35 37 35 34 45 45 45 51 54 52 51 47 44 39 34 32 28 25 24 22 16 15 14 16
17 14 12 11 15 27 32 30 31 36 39 37 38 44 47 48 49 48 49 50 47 43 37 37 34 33 26 22 20 21 16 14 16
16 12 9 8 10 15 21 28 32 38 40 44 48 50 51 50 49 47 47 47 45 41 38 42 35 29 26 18 18 16 17 19 18
13 8 3 5 11 18 20 22 25 29 36 41 43 46 43 42 43 42 43 46 46 39 33 29 28 26 22 21 18 11 15 21 13
10 5 3 6 7 10 15 19 23 26 28 33 37 44 42 35 34 36 34 38 28 20 21 15 13 14 20 21 14 15 14 13 11
12 8 2 2 3 6 6 10 14 18 24 27 25 28 30 32 27 23 22 17 29 8 28 27 27 22 19 15 15 16 15 13 11
Wind_Direction
207 205 204 208 212 214 214 217 217 218 218 219 220 222 226 228 228 220 214 215 222 227 227 227 227 237 235 233 230 229 231 237 243
205 205 205 207 213 216 215 216 219 220 219 220 222 223 224 224 225 219 215 208 215 226 225 228 230 233 228 230 227 224 226 228 231
204 201 204 207 210 214 216 219 222 221 224 221 223 224 224 223 223 221 218 210 215 223 221 223 224 231 231 228 228 232 235 232 232
200 192 199 203 208 216 218 216 218 223 223 224 223 222 223 223 222 222 220 218 217 221 226 227 230 237 234 236 235 236 239 240 235
202 189 192 202 210 210 211 218 219 224 225 225 226 224 221 223 223 222 221 223 223 221 226 230 233 236 237 238 238 239 244 245 239
196 198 200 206 202 209 212 219 220 224 228 229 228 226 222 222 222 222 224 226 225 225 224 228 232 234 236 237 240 240 243 246 246
193 201 218 216 213 212 221 222 223 225 227 229 228 228 226 222 223 223 223 226 227 228 228 230 231 234 237 241 243 245 246 248 250
204 205 214 226 220 225 226 222 223 223 227 227 227 228 228 227 224 226 226 226 229 230 230 232 235 236 239 242 245 247 250 252 252
212 218 212 206 212 228 218 221 220 225 222 226 225 227 230 229 227 227 228 229 230 231 232 232 236 236 238 241 245 249 253 256 255
222 218 219 222 227 219 209 212 216 218 222 225 225 227 229 229 229 228 230 229 230 234 234 232 236 237 238 240 244 251 255 257 256
230 211 195 211 208 208 211 215 218 221 223 224 226 228 225 229 228 230 230 231 231 233 234 233 234 236 239 242 245 250 254 254 257
229 219 214 198 219 208 210 220 223 224 221 225 225 227 229 228 230 228 230 230 231 231 232 231 234 235 238 239 240 239 242 245 248
196 213 225 214 212 221 204 212 224 225 225 225 229 231 233 232 230 230 230 230 231 231 231 233 233 234 235 240 244 244 243 244 242
197 209 211 228 223 210 203 203 216 219 227 224 228 231 233 231 230 230 231 232 229 230 226 227 229 227 225 218 253 240 238 227 232
157 178 207 216 220 225 230 216 218 225 224 236 232 230 229 230 231 229 228 229 226 225 225 224 221 217 222 217 221 232 229 237 237
138 147 173 202 226 233 230 230 231 230 229 228 231 227 228 230 228 225 225 222 219 219 219 221 217 212 201 206 217 216 211 229 235
136 137 150 178 206 221 226 230 234 235 233 230 226 222 220 220 220 217 217 216 215 216 215 218 223 196 186 195 205 209 223 225 221
126 123 136 212 216 223 238 244 239 234 232 230 217 213 204 197 201 203 198 204 202 204 218 225 206 186 183 183 191 199 218 234 230
135 156 222 254 256 250 237 232 233 231 226 220 213 198 194 205 210 215 204 193 179 195 177 163 210 185 187 188 175 168 188 207 216
119 121 135 265 258 261 260 258 251 227 206 216 204 209 209 201 193 189 187 159 133 140 179 183 187 184 184 178 171 164 182 190 190